Temp
71 71 70 71 59 54 50 57 65 68 69 72 74 72 71 71 70 61 72 76 77 77 74 77 78 78 78 78 78 77 77 77 77 77 77 77 77 77 77 76 76 76 76 76 77 77 77 78 78
71 75 73 66 53 46 51 62 66 69 75 72 74 71 71 69 74 73 73 76 77 74 74 75 78 78 78 78 77 77 77 77 77 77 77 77 77 77 77 77 76 77 77 77 77 77 77 77 78
75 78 66 59 50 47 52 63 68 74 78 74 70 74 73 71 76 74 76 76 75 74 75 75 78 78 78 78 77 77 77 77 77 77 77 77 76 76 76 77 77 77 77 78 78 78 77 77 77
75 70 65 54 52 57 61 68 70 73 75 74 74 70 75 78 76 78 77 77 75 75 75 75 77 77 77 78 77 77 77 77 77 77 77 76 77 77 76 76 76 77 77 78 78 78 77 77 77
71 65 56 51 55 60 67 72 72 72 74 73 74 70 70 77 80 77 76 78 75 71 71 73 77 77 78 78 77 77 77 76 76 77 77 77 76 76 76 76 76 76 77 77 77 77 77 76 77
62 61 50 49 56 64 68 72 71 73 75 73 71 70 70 76 76 74 76 73 74 71 69 71 77 77 77 77 77 77 76 76 76 76 76 75 75 75 75 75 75 76 76 76 77 77 76 76 75
61 55 50 53 59 62 68 72 68 70 71 73 73 68 69 72 75 74 73 72 71 71 71 71 73 75 77 77 76 76 76 75 75 75 74 74 74 74 74 74 74 75 75 75 75 75 75 75 75
64 59 51 55 56 60 70 71 69 71 75 77 77 69 66 73 74 71 69 69 67 68 71 69 68 70 70 71 76 76 75 75 74 74 74 73 73 73 73 72 72 73 73 73 74 75 75 75 74
68 53 51 55 59 62 69 66 75 80 76 77 79 74 77 77 72 69 66 65 64 68 64 64 64 66 66 67 70 75 76 75 75 73 74 71 64 62 65 68 71 71 72 73 73 74 74 74 74
62 52 58 69 67 65 68 68 73 73 74 73 77 77 75 76 72 70 67 66 64 64 64 63 63 63 64 69 65 65 66 64 64 65 63 62 60 59 64 66 70 71 72 73 73 73 74 74 65
62 60 68 69 72 69 69 71 77 72 70 74 74 75 72 72 70 71 71 71 70 68 64 63 62 62 63 64 61 60 60 60 60 62 61 60 60 59 59 58 59 59 64 62 65 65 66 65 63
59 66 71 72 75 68 69 74 73 75 75 82 78 77 72 71 70 71 71 69 65 64 64 63 62 62 61 61 59 59 59 59 59 60 60 58 58 58 58 57 58 59 59 60 60 61 62 63 63
61 67 71 72 71 72 74 71 73 74 80 83 80 74 72 72 72 73 73 70 64 63 64 63 61 61 61 60 59 59 59 60 60 60 60 59 58 57 58 59 60 60 59 58 59 60 60 61 62
65 66 67 70 71 72 70 71 73 76 79 79 75 71 73 72 72 69 65 65 63 65 64 62 62 61 61 60 60 60 59 60 60 59 60 61 59 58 58 61 60 58 57 58 59 59 59 60 60
66 61 66 68 71 70 73 66 68 77 76 73 72 72 72 73 73 69 72 67 66 65 64 62 61 61 61 60 60 59 59 60 60 60 61 61 60 59 59 60 59 57 58 58 58 58 59 59 59
59 55 52 65 70 72 67 58 70 77 73 72 73 72 72 72 71 73 69 66 64 62 62 62 67 61 60 59 59 60 60 60 60 60 60 61 61 60 59 58 57 58 58 57 57 57 57 57 58
51 50 52 59 67 66 63 60 69 73 71 70 73 73 72 73 67 67 66 64 62 63 62 62 62 61 60 60 59 59 60 60 60 60 60 61 62 62 58 57 57 59 57 56 57 56 57 57 57
48 47 55 55 62 64 62 61 69 73 72 71 74 73 69 71 69 67 63 63 63 62 62 61 61 60 60 59 59 59 59 60 61 60 61 62 62 61 58 57 58 58 57 56 56 56 57 57 57
58 55 54 60 65 62 59 60 65 71 68 67 68 68 68 65 62 61 63 66 63 61 60 60 60 59 59 57 58 58 59 59 59 60 62 63 62 60 58 57 58 58 56 56 56 56 57 56 57
57 53 53 59 64 61 59 59 66 68 69 69 70 71 63 59 59 62 63 65 63 60 60 60 61 59 59 58 59 59 58 60 60 60 62 63 62 61 59 58 58 58 56 56 56 57 57 56 57
55 53 54 55 60 62 59 56 61 69 68 70 68 68 64 63 59 61 62 62 60 60 60 61 60 60 59 60 59 58 59 59 59 59 60 60 63 62 60 60 59 57 57 55 56 57 57 55 57
51 61 61 59 53 46 57 41 53 60 64 65 68 66 66 60 60 62 64 58 60 60 60 60 60 59 60 60 59 59 57 56 57 58 59 60 63 62 61 61 59 58 57 56 57 58 57 57 56
57 64 60 58 52 48 53 45 51 56 60 63 67 66 59 58 60 62 60 61 60 60 59 60 60 59 60 60 60 58 57 57 57 57 58 58 60 62 62 60 59 58 57 57 57 57 57 57 57
66 57 55 54 48 41 51 47 48 54 60 63 65 60 59 58 58 58 60 60 60 59 59 59 59 59 60 60 60 59 58 57 57 57 57 57 59 59 60 60 58 59 58 58 58 58 58 57 59
59 48 36 33 35 37 52 47 54 60 63 65 67 61 58 57 57 59 61 58 58 58 58 59 59 59 59 60 60 58 58 58 56 58 57 56 57 57 57 58 59 58 58 59 57 58 58 59 59
56 53 38 32 33 40 53 45 54 64 67 67 68 61 59 57 58 60 60 60 60 59 58 60 59 58 59 59 60 58 59 58 57 58 57 57 57 57 58 59 59 60 60 59 58 58 57 59 59
56 49 58 45 43 40 45 52 59 61 60 61 58 58 56 57 58 59 60 59 58 58 58 59 58 59 59 59 59 59 59 59 59 58 58 57 57 59 59 59 59 60 60 59 59 59 59 59 59
56 60 46 42 34 33 43 46 50 57 57 57 57 55 56 55 57 59 59 58 59 59 59 58 59 60 60 59 59 60 60 60 59 59 58 58 59 59 59 59 59 59 59 59 62 61 61 61 61
51 52 48 51 46 36 35 43 55 60 59 58 58 57 56 57 59 60 59 59 60 58 58 58 58 60 59 59 59 60 60 60 59 58 58 59 59 59 59 59 59 59 59 59 60 60 62 63 61
61 56 54 45 41 46 42 48 60 60 62 62 60 60 57 59 60 60 60 57 57 57 57 58 58 59 60 60 60 60 60 60 58 58 59 59 59 59 60 60 60 60 59 59 60 61 63 62 60
MSLP
1012.19 1012.38 1012.75 1012.87 1013.98 1014.08 1013.11 1011.32 1009.77 1008.43 1007.65 1006.67 1006.32 1006.68 1006.64 1006.84 1007.51 1008.43 1007.23 1007.55 1007.82 1008.43 1009.24 1009.88 1010.37 1010.62 1010.84 1011.26 1011.58 1011.90 1012.01 1012.50 1012.72 1012.96 1013.04 1013.04 1013.17 1013.33 1013.44 1013.61 1013.67 1013.75 1013.78 1013.78 1013.86 1013.89 1013.90 1013.86 1013.94
1011.98 1012.32 1012.56 1013.08 1014.01 1014.13 1012.39 1010.24 1008.92 1007.59 1006.55 1006.27 1006.14 1006.46 1006.55 1006.79 1006.89 1007.27 1007.53 1007.61 1007.81 1008.28 1009.01 1009.49 1009.82 1010.20 1010.72 1011.05 1011.39 1011.73 1012.01 1012.25 1012.49 1012.70 1012.99 1012.93 1012.96 1013.06 1013.21 1013.36 1013.44 1013.39 1013.50 1013.50 1013.74 1013.72 1013.74 1013.74 1013.70
1011.81 1011.88 1012.79 1013.50 1013.82 1013.38 1011.62 1009.70 1008.46 1007.10 1006.05 1006.34 1006.33 1006.46 1006.52 1006.45 1006.62 1006.85 1006.69 1007.21 1007.89 1008.30 1008.53 1009.03 1009.53 1010.10 1010.51 1010.79 1011.13 1011.48 1011.86 1012.14 1012.33 1012.46 1012.82 1012.69 1012.70 1012.82 1012.89 1013.01 1013.13 1013.18 1013.26 1013.29 1013.19 1013.20 1013.37 1013.50 1013.59
1012.04 1012.44 1013.27 1013.63 1013.46 1012.11 1010.72 1008.94 1007.75 1006.94 1005.96 1005.70 1006.05 1006.55 1006.21 1005.65 1006.03 1006.07 1006.32 1007.07 1007.77 1008.19 1008.42 1008.93 1009.36 1009.83 1010.23 1010.51 1010.85 1011.08 1011.33 1011.72 1012.00 1012.21 1012.27 1012.45 1012.43 1012.45 1012.48 1012.71 1012.83 1012.93 1012.79 1012.81 1012.79 1012.95 1013.19 1013.35 1013.46
1012.14 1012.77 1013.46 1013.45 1012.58 1011.40 1009.97 1008.27 1007.60 1006.44 1005.78 1005.56 1006.03 1006.14 1006.08 1005.46 1005.58 1005.95 1006.50 1007.12 1007.59 1008.07 1008.35 1008.78 1009.14 1009.61 1009.99 1010.21 1010.48 1010.80 1011.13 1011.23 1011.60 1011.69 1011.80 1012.06 1012.17 1012.13 1012.15 1012.20 1012.32 1012.46 1012.56 1012.60 1012.62 1012.73 1012.79 1012.93 1013.09
1012.46 1013.14 1013.73 1013.22 1011.82 1010.39 1009.12 1007.71 1007.07 1006.43 1005.48 1005.42 1005.79 1006.02 1006.02 1005.56 1005.89 1006.24 1006.57 1007.01 1007.29 1007.72 1008.29 1008.65 1008.98 1009.37 1009.59 1009.79 1010.05 1010.38 1010.89 1011.09 1011.18 1011.30 1011.48 1011.76 1011.88 1011.91 1012.03 1012.04 1012.12 1012.22 1012.30 1012.40 1012.40 1012.34 1012.46 1012.62 1012.83
1012.33 1013.34 1013.21 1012.38 1011.21 1009.72 1008.22 1006.68 1006.43 1006.24 1005.55 1005.27 1005.35 1005.89 1006.04 1005.90 1005.87 1006.09 1006.45 1007.00 1007.29 1007.89 1008.29 1008.57 1008.80 1009.12 1009.39 1009.71 1009.78 1010.20 1010.50 1010.81 1011.04 1011.17 1011.36 1011.51 1011.73 1011.77 1011.82 1011.87 1011.87 1011.86 1011.99 1012.14 1012.20 1012.08 1012.09 1012.30 1012.54
1011.89 1012.87 1012.72 1011.94 1010.72 1009.05 1007.49 1006.64 1005.99 1005.90 1005.27 1004.84 1005.05 1005.79 1005.89 1004.99 1006.03 1006.64 1007.05 1007.40 1007.69 1007.92 1008.23 1008.48 1008.63 1008.98 1009.35 1009.67 1009.98 1010.10 1010.16 1010.47 1010.86 1011.03 1011.16 1011.26 1011.53 1011.62 1011.69 1011.78 1011.78 1011.62 1011.65 1011.82 1011.81 1011.68 1011.74 1011.94 1012.32
1011.32 1012.33 1011.79 1010.99 1010.03 1008.44 1006.93 1006.88 1005.43 1005.33 1005.20 1004.85 1004.84 1004.67 1004.47 1004.87 1005.91 1006.97 1007.59 1008.13 1008.19 1008.15 1008.28 1008.44 1008.64 1008.79 1009.05 1009.46 1010.15 1010.03 1010.00 1010.29 1010.58 1010.81 1010.96 1011.10 1011.38 1011.61 1011.64 1011.76 1011.66 1011.56 1011.44 1011.40 1011.35 1011.24 1011.29 1011.58 1011.91
1010.96 1011.45 1010.05 1008.41 1008.47 1007.85 1007.01 1006.66 1005.90 1005.79 1005.00 1004.85 1004.64 1004.32 1004.38 1004.82 1005.96 1006.71 1007.14 1007.53 1007.83 1007.97 1008.10 1008.26 1008.62 1008.86 1009.17 1009.32 1009.60 1010.06 1010.12 1010.24 1010.44 1010.70 1010.88 1011.06 1011.23 1011.40 1011.43 1011.39 1011.30 1011.23 1011.11 1011.03 1010.93 1010.86 1010.87 1011.11 1011.64
1010.11 1009.78 1008.04 1007.86 1007.32 1007.34 1007.29 1006.44 1005.75 1005.56 1004.97 1004.47 1004.42 1004.15 1004.65 1005.05 1005.86 1006.13 1006.28 1006.27 1006.38 1006.88 1007.41 1008.01 1008.50 1008.81 1008.95 1009.26 1009.55 1010.06 1010.13 1010.21 1010.40 1010.52 1010.59 1010.81 1011.07 1011.23 1011.21 1011.23 1011.25 1011.24 1011.24 1011.21 1010.94 1010.75 1010.69 1011.04 1011.48
1009.45 1008.82 1008.07 1006.99 1006.51 1007.21 1006.80 1006.32 1005.53 1004.85 1004.41 1003.71 1003.71 1003.80 1004.13 1005.02 1005.44 1005.47 1005.66 1005.81 1006.23 1006.54 1007.13 1007.51 1008.13 1008.71 1008.88 1009.18 1009.69 1009.90 1010.10 1009.97 1010.04 1010.07 1010.27 1010.73 1010.92 1011.07 1010.99 1011.00 1010.99 1011.05 1010.99 1010.93 1010.86 1010.79 1010.71 1010.99 1011.34
1008.60 1007.69 1007.29 1007.08 1007.01 1006.69 1006.43 1005.73 1004.77 1004.06 1003.49 1003.17 1003.30 1003.50 1003.74 1004.15 1004.39 1004.74 1004.67 1005.01 1005.64 1006.34 1006.94 1007.53 1007.83 1008.39 1008.90 1009.33 1009.74 1009.88 1009.73 1009.67 1009.66 1009.79 1009.93 1010.21 1010.49 1010.64 1010.67 1010.67 1010.53 1010.61 1010.68 1010.81 1010.88 1010.85 1010.93 1011.12 1011.32
1007.78 1007.58 1007.26 1007.02 1006.73 1006.33 1005.81 1005.06 1004.70 1003.34 1003.28 1003.04 1003.14 1003.28 1003.26 1003.52 1003.58 1004.35 1004.86 1004.92 1005.35 1005.80 1006.61 1007.39 1007.69 1008.23 1008.78 1009.20 1009.49 1009.27 1009.18 1009.11 1009.31 1009.40 1009.49 1009.64 1009.90 1010.19 1010.26 1010.32 1010.33 1010.54 1010.49 1010.57 1010.63 1010.76 1010.88 1011.13 1011.45
1007.66 1007.55 1007.00 1006.51 1006.09 1005.47 1005.53 1004.81 1003.68 1003.02 1002.97 1002.86 1002.77 1002.79 1002.69 1002.60 1003.30 1003.58 1003.35 1003.97 1004.28 1005.38 1006.41 1007.27 1007.51 1008.10 1008.46 1008.82 1008.99 1009.01 1008.84 1008.76 1008.94 1008.89 1008.97 1009.18 1009.38 1009.53 1009.75 1009.90 1010.00 1010.23 1010.35 1010.48 1010.50 1010.71 1010.93 1011.16 1011.43
1007.98 1007.62 1006.86 1005.76 1005.66 1004.52 1005.43 1003.51 1003.06 1002.55 1002.68 1002.40 1002.10 1002.02 1002.23 1002.30 1002.45 1002.34 1003.28 1003.95 1004.82 1005.84 1006.79 1007.21 1007.52 1007.98 1008.32 1008.54 1008.68 1008.71 1008.58 1008.52 1008.50 1008.48 1008.61 1008.76 1008.83 1008.99 1009.32 1009.59 1009.76 1009.91 1010.11 1010.28 1010.46 1010.70 1011.02 1011.18 1011.41
1008.41 1007.67 1006.82 1006.12 1005.48 1005.19 1004.86 1003.30 1002.44 1002.13 1002.38 1001.99 1001.56 1001.39 1001.48 1001.56 1002.13 1002.39 1003.03 1003.89 1004.80 1005.49 1006.47 1007.24 1007.47 1007.89 1008.09 1008.25 1008.45 1008.45 1008.39 1008.26 1008.10 1008.13 1008.22 1008.34 1008.41 1008.58 1009.04 1009.32 1009.57 1009.63 1009.87 1010.09 1010.31 1010.55 1010.74 1011.11 1011.31
1008.01 1007.45 1006.76 1005.54 1004.92 1004.86 1004.45 1003.63 1002.17 1001.57 1001.82 1001.36 1001.13 1000.87 1000.91 1001.17 1000.99 1001.66 1002.82 1003.91 1004.73 1005.67 1006.40 1006.82 1007.26 1007.72 1008.03 1008.11 1008.31 1008.32 1008.20 1007.93 1007.87 1007.91 1008.00 1007.99 1008.03 1008.30 1008.75 1009.01 1009.26 1009.46 1009.68 1009.93 1010.13 1010.38 1010.62 1010.85 1011.23
1006.45 1006.60 1006.15 1004.68 1005.07 1004.93 1004.17 1003.34 1002.26 1001.36 1001.54 1001.20 1000.71 1000.52 1000.54 1001.05 1001.54 1001.98 1002.93 1003.56 1004.70 1005.62 1006.32 1006.74 1007.25 1007.80 1007.94 1008.23 1008.35 1008.28 1008.15 1007.95 1007.77 1007.67 1007.71 1007.72 1007.86 1008.06 1008.44 1008.80 1008.99 1009.19 1009.48 1009.61 1009.89 1010.24 1010.59 1010.94 1011.08
1006.13 1006.27 1005.14 1004.73 1004.81 1004.96 1003.93 1003.30 1002.18 1001.10 1000.74 1000.39 1000.28 999.99 1000.56 1001.34 1002.15 1002.47 1002.93 1004.02 1004.97 1005.78 1006.26 1006.65 1007.31 1007.66 1007.70 1007.93 1007.94 1008.01 1007.98 1007.74 1007.64 1007.54 1007.51 1007.52 1007.62 1007.78 1008.17 1008.55 1008.69 1008.93 1009.26 1009.46 1009.80 1009.93 1010.42 1010.75 1010.91
1005.31 1005.34 1005.07 1004.86 1005.12 1004.61 1003.89 1003.07 1002.10 1000.31 1000.21 999.81 999.50 999.50 999.90 1000.36 1001.55 1002.56 1003.26 1003.81 1004.92 1005.80 1006.18 1006.59 1007.24 1007.45 1007.53 1007.67 1007.77 1007.92 1007.79 1007.69 1007.70 1007.67 1007.58 1007.48 1007.45 1007.56 1007.87 1008.20 1008.38 1008.66 1008.95 1009.29 1009.53 1009.72 1009.99 1010.52 1010.91
1004.28 1004.24 1005.00 1005.10 1005.48 1005.08 1004.04 1003.69 1002.15 1001.08 1000.45 999.98 999.53 999.50 999.70 1000.67 1001.84 1002.53 1003.42 1004.46 1004.92 1005.61 1005.99 1006.66 1007.09 1007.25 1007.47 1007.54 1007.74 1007.89 1008.00 1008.07 1008.00 1007.84 1007.57 1007.53 1007.42 1007.51 1007.76 1007.96 1008.13 1008.39 1008.67 1009.04 1009.26 1009.50 1009.71 1009.97 1010.50
1002.61 1004.19 1004.74 1005.02 1005.17 1005.12 1004.45 1004.64 1001.99 1001.35 1000.74 1000.00 999.54 999.33 999.97 1000.93 1001.83 1002.65 1003.57 1004.43 1005.17 1005.63 1006.24 1006.69 1007.00 1007.25 1007.46 1007.53 1007.66 1007.79 1007.87 1007.92 1007.97 1007.81 1007.64 1007.64 1007.54 1007.61 1007.78 1007.87 1008.05 1008.27 1008.46 1008.77 1009.13 1009.42 1009.62 1009.73 1010.21
1002.87 1004.07 1004.78 1005.18 1005.53 1004.99 1003.73 1004.25 1001.49 1000.94 999.93 999.32 999.06 999.60 1000.19 1001.29 1002.23 1003.23 1003.96 1004.77 1005.35 1005.90 1006.38 1006.77 1007.02 1007.28 1007.52 1007.56 1007.59 1007.70 1007.78 1007.90 1008.06 1007.89 1007.77 1007.77 1007.65 1007.71 1007.83 1007.88 1007.96 1008.16 1008.36 1008.64 1008.90 1009.14 1009.34 1009.66 1009.88
1002.62 1004.09 1005.62 1005.67 1005.61 1004.25 1003.10 1003.23 1000.63 999.21 999.01 998.82 999.10 999.80 1000.70 1001.58 1002.61 1003.40 1003.96 1004.93 1005.52 1006.10 1006.52 1006.86 1007.09 1007.45 1007.58 1007.58 1007.54 1007.71 1007.76 1007.93 1007.97 1007.86 1007.82 1007.83 1007.81 1007.90 1007.91 1007.87 1007.97 1008.14 1008.38 1008.61 1008.87 1009.16 1009.47 1009.90 1010.00
1001.24 1002.66 1003.83 1004.72 1004.55 1003.70 1002.57 1001.59 998.92 998.08 997.97 998.25 998.88 999.65 1000.83 1001.70 1002.65 1003.46 1004.21 1004.69 1005.41 1005.97 1006.49 1006.74 1007.09 1007.45 1007.51 1007.50 1007.53 1007.68 1007.69 1007.93 1007.91 1007.74 1007.73 1007.80 1007.78 1007.83 1007.81 1007.88 1008.04 1008.25 1008.45 1008.67 1008.93 1009.30 1009.58 1009.92 1010.19
1000.06 1000.84 1002.52 1003.54 1003.62 1003.14 1002.02 1000.22 998.80 998.22 998.41 998.58 999.10 999.90 1001.09 1001.81 1002.63 1003.40 1004.15 1004.74 1005.31 1005.89 1006.33 1006.54 1007.05 1007.32 1007.35 1007.34 1007.49 1007.60 1007.75 1007.80 1007.78 1007.66 1007.71 1007.72 1007.75 1007.77 1007.84 1007.97 1008.18 1008.39 1008.58 1008.81 1009.14 1009.35 1009.78 1010.18 1010.56
998.39 1000.32 1002.21 1002.92 1003.33 1002.91 1001.57 1000.39 999.24 998.62 998.52 999.10 999.63 1000.45 1001.35 1002.14 1002.97 1003.61 1004.21 1004.73 1005.19 1005.69 1005.99 1006.47 1006.83 1007.03 1007.17 1007.26 1007.44 1007.55 1007.71 1007.68 1007.64 1007.66 1007.82 1007.75 1007.83 1007.81 1007.87 1008.07 1008.32 1008.51 1008.74 1009.09 1009.37 1009.68 1009.89 1010.19 1010.75
998.25 998.93 999.86 1001.27 1001.87 1001.78 1001.32 999.58 998.26 997.98 998.26 998.91 999.53 1000.30 1001.08 1001.93 1002.68 1003.41 1004.02 1004.54 1004.95 1005.60 1006.03 1006.48 1006.89 1007.05 1007.21 1007.25 1007.44 1007.63 1007.71 1007.69 1007.71 1007.80 1007.90 1007.81 1007.84 1007.78 1007.93 1008.15 1008.53 1008.81 1009.08 1009.31 1009.59 1009.90 1010.19 1010.45 1010.96
996.92 998.07 998.71 999.52 1000.59 1000.61 1000.40 998.44 997.38 997.26 997.45 998.03 999.04 1000.12 1000.99 1001.68 1002.38 1003.16 1003.78 1004.42 1005.10 1005.60 1006.14 1006.50 1006.79 1006.94 1007.07 1007.16 1007.41 1007.72 1007.75 1007.75 1007.92 1007.97 1008.00 1007.93 1007.91 1007.87 1007.95 1008.30 1008.69 1009.02 1009.40 1009.62 1009.88 1010.12 1010.38 1010.69 1011.16
Wind_Speed
7 5 2 2 4 4 4 7 3 7 4 3 3 4 6 2 5 6 3 11 10 14 13 18 21 21 19 18 17 15 14 14 13 12 11 11 10 10 9 9 8 8 8 8 8 8 8 7 7
6 4 1 2 4 1 6 4 6 7 7 2 4 2 1 3 2 4 5 7 11 13 14 16 23 21 18 17 16 15 14 14 14 13 13 13 13 11 11 11 11 11 10 9 10 9 9 9 8
6 1 4 3 3 5 5 3 7 10 8 5 3 1 2 3 1 9 6 11 10 13 15 16 22 19 18 18 16 16 15 15 15 14 15 15 13 13 14 14 14 14 13 13 13 12 10 10 10
3 3 4 3 8 8 5 10 11 13 5 2 5 3 4 7 6 9 9 13 13 12 13 14 19 19 19 18 17 16 17 16 15 16 16 14 14 14 13 15 16 16 15 15 14 15 13 12 12
2 3 1 3 6 6 6 12 8 6 6 3 4 5 4 4 4 9 12 12 14 8 8 11 19 20 19 19 18 17 16 15 16 15 13 14 15 14 14 15 16 15 16 17 17 16 16 13 13
3 3 1 4 5 5 7 10 5 6 6 3 2 6 6 4 8 8 10 10 9 12 8 8 18 19 19 18 17 16 15 15 16 14 14 12 11 11 13 14 15 16 16 17 18 17 15 12 13
6 4 5 4 9 7 7 3 2 4 7 6 4 7 5 4 8 9 9 7 8 7 9 8 11 15 18 16 14 15 14 13 12 11 11 10 10 11 13 15 16 17 17 18 19 18 16 13 15
5 4 3 5 4 11 5 3 2 3 10 2 4 5 7 8 8 7 6 6 6 7 9 9 7 7 6 5 13 13 14 13 12 12 11 10 10 11 12 12 12 16 17 18 18 20 19 15 15
5 2 6 8 7 9 4 4 3 4 5 2 7 7 6 8 11 7 5 3 3 4 5 6 7 7 7 7 7 11 12 12 12 10 11 8 4 5 7 8 11 13 15 16 19 19 18 15 17
5 5 11 11 8 8 8 6 14 5 11 7 7 5 2 15 13 14 11 11 7 8 6 7 7 7 7 5 5 4 4 3 3 5 5 4 4 5 5 8 11 13 14 15 14 17 17 15 4
8 13 23 12 14 5 9 17 11 11 15 11 10 8 6 8 11 15 15 16 18 13 7 8 7 7 8 5 3 2 3 3 3 6 6 5 3 3 3 2 3 3 8 4 5 5 3 4 4
6 13 19 20 18 5 12 10 17 17 17 18 9 8 10 12 15 17 16 13 9 10 8 10 9 8 6 4 4 4 4 3 3 5 6 4 3 4 4 3 4 4 3 4 3 2 2 4 5
8 19 17 14 12 14 15 20 21 20 20 19 11 9 16 17 18 16 15 11 7 10 10 11 9 8 6 6 4 5 5 4 5 5 5 4 4 4 4 4 3 3 2 3 3 3 3 4 4
6 10 13 13 18 17 22 22 13 22 12 17 7 12 15 18 21 10 7 10 9 10 13 10 9 8 7 6 7 5 4 5 4 4 5 6 4 4 4 4 4 4 3 3 3 3 3 3 3
6 12 14 16 12 22 15 19 22 19 11 13 10 12 15 19 13 18 20 15 15 11 12 12 9 8 8 7 5 4 4 4 4 4 5 6 6 6 5 4 3 4 3 4 3 2 2 3 2
5 2 8 6 12 16 9 25 20 19 12 17 15 11 12 16 18 20 10 8 9 10 10 8 7 8 7 6 5 4 4 4 4 4 4 5 5 6 5 4 4 4 4 3 3 3 2 3 3
2 14 14 18 10 7 8 16 11 9 8 13 15 12 12 16 11 10 10 9 11 14 11 8 8 8 7 5 3 3 4 4 4 3 4 5 5 5 5 4 4 4 3 3 3 2 3 2 2
11 7 13 23 3 11 17 16 20 18 10 14 17 14 12 13 20 10 10 12 12 10 9 8 7 7 6 3 1 1 2 3 3 4 4 5 4 5 5 4 4 4 3 3 3 3 2 2 3
7 15 16 16 3 8 9 9 17 16 7 12 13 13 13 7 2 9 12 16 14 9 9 9 8 6 3 1 1 1 3 2 2 3 5 4 4 5 5 4 4 4 4 4 5 3 4 2 2
11 10 20 15 8 7 11 14 17 14 13 12 15 16 4 4 5 10 14 13 12 11 9 8 7 7 3 2 2 2 2 3 3 3 3 4 5 5 5 5 4 5 3 5 5 4 3 2 3
18 19 16 20 1 6 10 14 14 17 7 11 10 9 6 11 11 12 15 14 11 11 9 8 8 7 3 3 2 1 1 1 2 2 2 2 3 4 5 6 4 4 4 4 5 5 6 4 1
18 17 19 19 6 9 4 6 5 8 12 7 11 7 9 7 8 13 13 10 12 8 7 8 7 7 4 4 2 1 1 1 2 2 1 1 2 3 4 5 5 5 4 5 5 4 3 4 4
19 13 11 11 9 5 10 3 8 3 9 11 11 7 5 7 10 14 12 11 7 8 7 7 7 6 4 4 3 2 1 0 1 1 2 2 2 1 3 4 5 4 3 4 6 5 5 3 4
6 3 2 6 1 11 18 7 6 7 9 7 4 2 7 8 10 9 9 8 7 6 7 7 7 4 5 4 4 3 2 2 0 1 1 2 1 1 2 3 4 4 3 5 5 5 5 3 4
7 8 2 3 4 7 7 6 16 10 10 9 9 8 9 10 11 14 16 10 8 8 8 7 7 5 5 5 4 2 3 2 1 1 1 2 0 1 2 2 3 2 3 5 5 5 5 5 4
18 14 8 8 5 5 6 7 12 5 9 9 9 8 10 12 11 13 12 11 10 9 8 8 7 5 5 5 4 2 3 2 1 1 1 1 2 2 3 3 3 3 4 5 4 3 3 4 4
17 18 14 3 2 3 5 8 11 3 3 3 7 9 9 11 12 14 11 9 9 9 9 9 7 5 6 6 4 3 2 1 1 1 2 1 2 2 3 3 3 4 4 4 5 3 4 5 4
11 10 9 4 6 4 5 4 7 5 3 3 6 8 7 7 9 10 9 9 7 8 7 6 7 8 6 5 4 2 2 1 1 3 2 2 2 2 4 3 3 4 4 5 7 5 5 6 5
8 9 5 8 6 7 3 7 7 9 9 11 9 8 12 12 13 12 9 8 9 7 7 7 6 7 6 5 3 4 2 3 3 3 1 1 2 3 4 4 5 5 5 5 8 8 8 9 8
18 18 13 9 8 6 4 10 4 8 11 11 10 10 8 10 12 11 11 9 8 8 7 7 7 7 6 5 4 5 4 4 4 4 3 2 4 3 5 5 6 6 6 5 7 9 8 8 7
Wind_Direction
137 156 198 42 50 59 265 255 238 285 317 239 130 148 203 115 156 213 331 176 130 156 163 178 184 190 186 185 186 189 188 192 196 205 213 216 222 226 231 235 237 241 250 254 269 269 264 258 259
144 156 61 88 93 53 264 263 246 236 222 112 65 35 323 190 178 115 102 195 161 152 165 178 190 190 187 188 189 191 197 201 206 211 220 223 229 232 246 252 251 250 253 255 253 260 265 259 258
133 72 87 104 151 200 230 239 287 291 283 178 118 46 228 235 143 173 231 154 144 161 171 184 188 186 189 190 190 194 201 207 214 220 229 231 227 233 238 245 252 251 252 255 260 260 257 264 253
142 27 34 110 237 263 245 281 258 277 329 186 137 170 275 203 175 188 151 146 156 173 176 182 184 187 191 191 193 195 202 211 221 228 234 240 238 240 240 244 247 254 256 261 264 269 250 244 249
43 56 116 237 242 252 250 257 285 213 228 171 173 210 242 282 168 146 148 157 166 170 170 175 184 189 192 192 193 197 207 212 223 231 236 242 252 256 256 253 251 250 254 256 257 258 254 245 246
66 99 67 249 229 241 269 257 248 290 298 194 184 152 227 297 138 174 156 169 173 166 164 172 185 190 193 193 194 197 208 218 224 231 237 249 261 267 269 263 260 258 260 262 261 260 253 251 245
129 100 225 251 277 289 228 248 261 295 295 254 137 155 251 250 197 159 165 158 160 158 162 173 184 194 195 196 195 203 209 216 219 216 222 232 251 261 267 268 268 267 266 261 260 262 261 256 246
127 119 258 243 213 276 219 301 303 306 292 47 106 208 248 213 150 111 120 160 149 161 177 178 171 174 176 180 206 203 204 208 212 216 221 229 243 252 258 264 272 274 270 269 265 258 254 249 244
134 105 244 237 185 248 247 357 269 289 267 288 206 176 235 145 122 118 115 110 145 178 175 166 161 161 166 178 212 205 210 210 220 223 228 226 224 246 262 262 263 265 261 259 257 253 252 246 238
156 173 233 220 207 246 287 297 293 328 299 276 275 263 102 144 158 163 169 182 194 197 193 180 172 170 171 179 181 202 211 207 219 214 209 226 224 228 236 247 260 263 268 271 280 254 247 243 183
189 216 234 273 241 218 278 286 290 279 287 253 262 241 166 159 180 183 186 188 195 196 171 171 174 174 166 159 169 200 205 213 224 212 206 216 231 234 249 253 267 267 272 266 275 288 230 176 163
253 231 240 249 262 264 255 287 279 281 270 275 246 227 168 180 190 194 198 200 178 175 176 162 164 161 158 150 165 189 197 203 206 206 204 201 215 226 238 237 242 247 248 267 271 266 189 178 187
208 243 244 265 278 271 275 265 265 280 279 280 272 182 188 191 200 209 206 205 165 171 169 171 160 156 165 166 183 192 194 190 202 209 222 201 207 220 222 232 228 257 259 247 252 235 195 190 190
240 255 267 259 262 267 267 275 281 274 276 282 204 210 201 200 205 195 193 202 184 167 166 168 165 164 161 181 197 201 196 209 205 209 215 210 206 216 216 222 219 241 240 258 236 216 197 196 177
246 275 272 266 258 261 275 281 267 275 270 270 250 226 214 208 203 210 205 195 183 168 155 166 162 167 173 193 202 205 218 221 221 228 225 215 207 218 211 209 223 231 226 236 230 220 190 172 189
352 284 266 245 237 257 178 264 271 270 265 268 267 238 213 222 212 216 205 176 156 136 156 162 163 174 185 190 204 221 232 232 232 233 229 226 219 209 200 201 224 229 224 209 196 173 180 200 200
247 259 278 284 236 262 189 274 270 263 235 259 269 260 221 226 225 206 177 150 144 156 154 167 164 175 188 196 206 231 242 228 237 234 225 229 213 202 193 200 224 220 210 203 177 162 158 172 185
215 235 248 252 251 222 253 260 274 277 268 271 279 273 226 222 222 187 148 140 139 150 156 152 150 166 176 151 213 269 255 252 248 235 229 225 211 205 197 208 222 208 185 200 168 147 143 139 170
194 226 245 258 214 248 245 261 276 280 281 270 272 263 241 242 153 138 146 149 148 145 146 151 146 176 146 131 189 274 258 284 269 248 234 222 219 213 197 215 210 190 187 194 172 138 160 167 151
231 243 256 286 260 231 268 263 271 282 275 259 252 262 186 145 160 152 144 143 155 150 153 145 161 165 162 146 204 205 224 263 263 276 243 230 213 209 196 202 201 191 175 173 161 153 132 143 182
223 228 248 250 354 256 283 284 278 283 298 274 258 237 195 198 172 156 150 156 144 153 158 153 166 160 157 172 115 18 318 332 359 329 280 259 233 213 188 194 195 189 178 168 172 169 154 148 160
229 219 241 254 265 262 131 288 295 276 296 290 277 252 240 154 147 155 155 144 152 163 140 146 153 151 171 166 114 139 181 316 262 268 309 348 317 181 179 192 188 182 174 170 180 167 174 138 147
233 219 232 247 253 263 255 272 265 253 288 273 265 260 228 153 152 156 148 143 151 135 151 152 150 164 167 159 144 140 75 262 287 335 9 341 309 131 189 172 157 167 175 187 161 164 177 163 134
173 200 278 265 287 261 266 178 222 225 221 263 256 44 144 134 119 114 121 135 139 137 139 143 158 165 165 172 152 133 120 111 284 354 0 321 319 65 157 147 157 163 165 159 166 175 183 142 116
172 112 267 287 216 221 236 176 243 261 237 229 240 190 144 130 133 145 155 150 143 152 149 159 170 169 182 182 161 151 157 161 206 309 340 302 129 167 170 132 149 135 138 140 144 151 144 137 148
205 177 164 201 196 196 167 233 254 238 280 232 252 147 140 142 146 157 159 154 156 157 161 172 177 162 181 184 173 178 152 198 218 24 27 266 152 172 172 148 134 111 114 137 136 131 122 140 143
199 206 183 20 316 82 212 280 329 319 314 216 139 129 158 148 155 156 159 157 155 161 173 179 168 176 181 192 161 198 142 220 266 347 14 93 119 147 158 156 129 112 117 125 130 111 109 111 100
163 147 185 194 203 198 269 258 219 241 223 166 145 162 141 134 143 157 160 161 166 170 174 173 172 180 181 182 178 167 195 194 61 69 68 101 118 135 164 160 140 105 106 108 122 119 116 116 102
161 210 152 154 216 165 184 253 217 203 185 192 201 177 163 160 163 168 164 167 171 161 163 175 172 176 171 188 173 137 144 94 82 78 33 97 123 144 160 147 130 122 113 110 120 116 129 127 110
194 203 209 170 201 227 156 260 220 211 193 188 180 173 160 163 167 164 164 156 160 170 166 176 177 175 183 184 146 130 139 110 91 78 42 64 90 118 134 127 115 111 107 97 104 113 126 107 109